TimeEDT,TemperatureF,Dew PointF,Humidity,Sea Level PressureIn,VisibilityMPH,Wind Direction,Wind SpeedMPH,Gust SpeedMPH,PrecipitationIn,Events,Conditions,WindDirDegrees,DateUTC
12:15 AM,51.3,34.0,52,30.15,10.0,WNW,4.6,-,N/A,,Clear,290,2012-10-11 04:15:00
12:35 AM,50.0,33.8,54,30.16,10.0,NW,3.5,-,N/A,,Clear,310,2012-10-11 04:35:00
12:55 AM,49.1,33.8,56,30.16,10.0,Calm,Calm,-,N/A,,Clear,0,2012-10-11 04:55:00
1:15 AM,48.6,34.0,57,30.17,10.0,West,3.5,-,N/A,,Clear,260,2012-10-11 05:15:00
1:55 AM,49.1,32.0,52,30.19,10.0,NW,4.6,-,N/A,,Clear,310,2012-10-11 05:55:00
2:15 AM,47.3,32.9,57,30.19,10.0,NW,5.8,-,N/A,,Clear,310,2012-10-11 06:15:00
2:35 AM,45.1,32.9,62,30.19,10.0,Calm,Calm,-,N/A,,Clear,0,2012-10-11 06:35:00
2:55 AM,47.3,32.4,56,30.20,10.0,Calm,Calm,-,N/A,,Clear,0,2012-10-11 06:55:00
3:15 AM,44.4,32.9,64,30.20,10.0,NW,4.6,-,N/A,,Clear,310,2012-10-11 07:15:00
3:55 AM,43.5,32.9,66,30.21,10.0,Calm,Calm,-,N/A,,Clear,0,2012-10-11 07:55:00
4:15 AM,41.2,32.9,72,30.22,10.0,Calm,Calm,-,N/A,,Clear,0,2012-10-11 08:15:00
4:35 AM,42.6,32.9,68,30.21,10.0,Calm,Calm,-,N/A,,Clear,0,2012-10-11 08:35:00
4:55 AM,41.2,32.7,72,30.23,10.0,Calm,Calm,-,N/A,,Clear,0,2012-10-11 08:55:00
5:15 AM,41.4,32.4,70,30.24,10.0,SE,3.5,-,N/A,,Clear,140,2012-10-11 09:15:00
5:35 AM,39.0,32.0,76,30.25,10.0,WNW,4.6,-,N/A,,Clear,300,2012-10-11 09:35:00
5:55 AM,41.2,32.0,70,30.25,10.0,Calm,Calm,-,N/A,,Clear,0,2012-10-11 09:55:00
6:15 AM,42.8,31.5,64,30.26,10.0,Calm,Calm,-,N/A,,Clear,0,2012-10-11 10:15:00
6:35 AM,43.3,30.7,61,30.27,10.0,Calm,Calm,-,N/A,,Clear,0,2012-10-11 10:35:00
6:55 AM,43.9,30.2,59,30.27,10.0,Calm,Calm,-,N/A,,Clear,0,2012-10-11 10:55:00
7:15 AM,40.3,30.9,69,30.27,10.0,Calm,Calm,-,N/A,,Clear,0,2012-10-11 11:15:00
7:35 AM,39.4,30.9,72,30.28,10.0,Calm,Calm,-,N/A,,Clear,0,2012-10-11 11:35:00
7:55 AM,41.2,30.7,66,30.28,10.0,Calm,Calm,-,N/A,,Clear,0,2012-10-11 11:55:00
8:15 AM,38.8,32.2,77,30.29,10.0,Calm,Calm,-,N/A,,Clear,0,2012-10-11 12:15:00
8:35 AM,42.4,32.4,68,30.30,10.0,Calm,Calm,-,N/A,,Clear,0,2012-10-11 12:35:00
8:55 AM,44.6,31.8,61,30.30,10.0,Calm,Calm,-,N/A,,Clear,0,2012-10-11 12:55:00
9:15 AM,46.4,31.5,56,30.30,10.0,NE,6.9,-,N/A,,Clear,50,2012-10-11 13:15:00
9:35 AM,48.4,30.6,50,30.31,10.0,NE,6.9,-,N/A,,Clear,50,2012-10-11 13:35:00
9:55 AM,48.9,27.3,43,30.31,10.0,NE,5.8,-,N/A,,Clear,50,2012-10-11 13:55:00
10:15 AM,49.8,27.9,43,30.32,10.0,NNE,4.6,-,N/A,,Clear,20,2012-10-11 14:15:00
10:35 AM,50.0,27.7,42,30.32,10.0,NE,3.5,-,N/A,,Clear,50,2012-10-11 14:35:00
10:55 AM,51.6,28.0,40,30.31,10.0,Calm,Calm,-,N/A,,Clear,0,2012-10-11 14:55:00
11:15 AM,51.6,27.0,38,30.31,10.0,Calm,Calm,-,N/A,,Clear,0,2012-10-11 15:15:00
11:35 AM,52.5,28.4,39,30.30,10.0,Calm,Calm,-,N/A,,Clear,0,2012-10-11 15:35:00
11:55 AM,54.0,28.2,37,30.30,10.0,SW,4.6,-,N/A,,Clear,220,2012-10-11 15:55:00
12:15 PM,54.9,27.9,35,30.30,10.0,South,3.5,-,N/A,,Clear,190,2012-10-11 16:15:00
12:35 PM,54.7,27.3,35,30.29,10.0,Calm,Calm,-,N/A,,Clear,0,2012-10-11 16:35:00
12:55 PM,55.6,26.4,33,30.29,10.0,Calm,Calm,-,N/A,,Clear,0,2012-10-11 16:55:00
1:15 PM,57.2,28.9,34,30.27,10.0,SW,4.6,-,N/A,,Clear,230,2012-10-11 17:15:00
1:35 PM,58.1,28.2,32,30.26,10.0,Calm,Calm,-,N/A,,Clear,0,2012-10-11 17:35:00
1:55 PM,58.8,28.6,32,30.25,10.0,Calm,Calm,-,N/A,,Clear,0,2012-10-11 17:55:00
2:15 PM,60.1,29.1,31,30.24,10.0,Calm,Calm,-,N/A,,Clear,0,2012-10-11 18:15:00
2:35 PM,61.5,30.4,31,30.23,10.0,SSW,4.6,-,N/A,,Clear,210,2012-10-11 18:35:00
2:55 PM,61.7,30.9,31,30.23,10.0,South,4.6,-,N/A,,Clear,190,2012-10-11 18:55:00
3:15 PM,63.0,31.8,31,30.22,10.0,South,6.9,-,N/A,,Clear,170,2012-10-11 19:15:00
3:35 PM,63.5,32.0,31,30.22,10.0,South,5.8,-,N/A,,Clear,180,2012-10-11 19:35:00
3:55 PM,63.9,32.9,31,30.21,10.0,South,6.9,-,N/A,,Clear,190,2012-10-11 19:55:00
4:15 PM,64.4,34.0,32,30.21,10.0,SSE,8.1,-,N/A,,Clear,160,2012-10-11 20:15:00
4:35 PM,64.4,34.3,33,30.20,10.0,SSE,8.1,-,N/A,,Clear,150,2012-10-11 20:35:00
4:55 PM,64.8,36.0,34,30.20,10.0,South,6.9,-,N/A,,Clear,190,2012-10-11 20:55:00
5:15 PM,64.2,35.4,34,30.20,10.0,South,5.8,-,N/A,,Clear,170,2012-10-11 21:15:00
5:35 PM,63.7,36.3,36,30.20,10.0,SSE,9.2,-,N/A,,Clear,160,2012-10-11 21:35:00
6:15 PM,61.7,38.1,42,30.20,10.0,South,6.9,-,N/A,,Clear,170,2012-10-11 22:15:00
6:35 PM,59.9,37.8,44,30.20,10.0,South,5.8,-,N/A,,Clear,180,2012-10-11 22:35:00
6:55 PM,57.7,38.5,49,30.20,10.0,South,4.6,-,N/A,,Clear,170,2012-10-11 22:55:00
7:35 PM,55.9,38.1,51,30.20,10.0,South,5.8,-,N/A,,Clear,170,2012-10-11 23:35:00
7:55 PM,53.2,38.1,57,30.20,10.0,Calm,Calm,-,N/A,,Clear,0,2012-10-11 23:55:00
8:15 PM,51.4,38.7,62,30.21,10.0,Calm,Calm,-,N/A,,Clear,0,2012-10-12 00:15:00
8:35 PM,49.3,38.7,67,30.21,10.0,SW,4.6,-,N/A,,Clear,230,2012-10-12 00:35:00
9:15 PM,49.1,38.3,66,30.21,10.0,Calm,Calm,-,N/A,,Clear,0,2012-10-12 01:15:00
9:35 PM,45.5,38.5,76,30.21,10.0,Calm,Calm,-,N/A,,Clear,0,2012-10-12 01:35:00
9:55 PM,46.4,38.5,74,30.22,10.0,Calm,Calm,-,N/A,,Clear,0,2012-10-12 01:55:00
10:15 PM,45.1,38.5,77,30.22,10.0,Calm,Calm,-,N/A,,Clear,0,2012-10-12 02:15:00
10:35 PM,43.3,37.8,81,30.21,10.0,SW,3.5,-,N/A,,Clear,230,2012-10-12 02:35:00
10:55 PM,43.7,37.6,79,30.21,10.0,Calm,Calm,-,N/A,,Clear,0,2012-10-12 02:55:00
11:15 PM,44.2,37.4,77,30.21,10.0,Calm,Calm,-,N/A,,Clear,0,2012-10-12 03:15:00
11:55 PM,44.1,36.9,76,30.20,10.0,SW,4.6,-,N/A,,Clear,230,2012-10-12 03:55:00